Terminal Aerodrome Forecast
Issued by NWS

Home | Current Version | Previous Version | Text Only | Print | Product List | Glossary On
Versions: 1 2 3 4 5 6 7 8 9 10 11 12 13 14 15 16 17 18 19 20 21 22 23 24 25 26
000
FTAK31 PAFA 231127
TAFAOM
TAF
PAOM 231127Z 2312/2412 00000KT P6SM -RA FEW007 OVC012
     FM231300 13006KT P6SM -SHRA OVC007
     FM232300 16012KT P6SM OVC015
     FM240900 04005KT 4SM -SHRA BR BKN015 OVC025=

USA.gov is the U.S. government's official web portal to all federal, state and local government web resources and services.